Hourly Data Report for January 10, 2022

BANCROFT AUTO
ONTARIO
Current Station Operator: ECCC - MSC

45°04'17.000" N
77°52'44.000" W
330.70 m
616I001
71294
WRK

Download Data

Hourly Data (January 2022)
Hourly Data Report for January 10, 2022
TIME
LST
Temp Definition
°C
Dew Point Definition
°C
Rel Hum Definition
%
Precip. Amount Definition
mm

Wind Dir Definition
10's deg

Wind Spd Definition
km/h
Visibility Definition
km
Stn Press Definition
kPa
Hmdx Definition


Wind Chill Definition


Weather Definition


00:00 -11.6 -17.2 64 0.0 29 12   97.63   -18 LegendNANA
01:00 -13.2 -18.5 64 0.0 30 7   97.63   -18 LegendNANA
02:00 -14.9 -18.2 76 0.0 23 2   97.65   -16 LegendNANA
03:00 -17.6 -19.3 86 0.0 24 1   97.68   -18 LegendNANA
04:00 -18.3 -20.0 87 0.0 0 1   97.67   -19 LegendNANA
05:00 -18.7 -20.4 86 0.0   0   97.64     LegendNANA
06:00 -14.9 -16.3 89 0.0 26 4   97.67   -18 LegendNANA
07:00 -13.1 -17.1 72 0.0 28 6   97.70   -17 LegendNANA
08:00 -13.8 -17.8 72 0.0 29 6   97.74   -18 LegendNANA
09:00 -13.6 -19.0 64 0.0 29 10   97.74   -20 LegendNANA
10:00 -13.3 -19.5 60 0.0 29 7   97.76   -18 LegendNANA
11:00 -12.8 -19.8 56 0.0 31 8   97.76   -18 LegendNANA
12:00 -13.1 -20.0 56 0.0 31 10   97.69   -19 LegendNANA
13:00 -13.1 -21.0 51 0.0 29 16   97.64   -21 LegendNANA
14:00 -12.5 -20.1 53 0.0 29 6   97.63   -16 LegendNANA
15:00 -13.1 -20.3 55 0.0 31 11   97.64   -19 LegendNANA
16:00 -13.6 -20.2 57 0.0 30 10   97.70   -20 LegendNANA
17:00 -14.8 -19.0 70 0.0 33 8   97.76   -20 LegendNANA
18:00 -15.5 -19.2 73 0.0 32 9   97.84   -21 LegendNANA
19:00 -16.4 -19.2 79 0.0 34 7   97.99   -21 LegendNANA
20:00 -18.5 -23.1 68 0.3 34 13   98.14   -27 LegendNANA
21:00 -20.3 -25.1 65 0.0 32 12   98.28   -28 LegendNANA
22:00 -21.4 -25.4 70 0.0 33 9   98.39   -28 LegendNANA
23:00 -23.4 -28.3 64 0.0 34 14   98.55   -33 LegendNANA

Notes on Data Quality.

Legend

  • E = Estimated
  • M = Missing
  • NA = Not Available*
  • [empty] = Indicates an unobserved value
Date modified: